Regional Weather Roundup
Issued by NWS Wakefield, VA

Home | Current Version | Previous Version | Text Only | Print | Product List | Glossary Off
Versions: 1 2 3 4 5 6 7 8 9 10 11 12 13 14 15 16 17 18 19 20 21 22 23 24 25 26 27

000
ASUS41 KAKQ 172215
RWRAKQ

REGIONAL WEATHER ROUNDUP
NATIONAL WEATHER SERVICE WAKEFIELD VA
600 PM EDT TUE OCT 17 2017

Note: "fair" indicates few or no clouds below 12,000 feet with no
significant weather and/or obstructions to visibility. * = Denotes
station may not report precipitation (e.g., rain,snow,etc.),
thunder or fog.

VAZ042-051-052>054-056-172300-
NORTHERN VIRGINIA

CITY           SKY/WX    TMP DP  RH WIND       PRES   REMARKS
WASH NATIONAL  PTCLDY    60  33  36 S3        30.30S
DULLES         PTCLDY    60  33  36 CALM      30.29F
FORT BELVOIR   CLEAR     59  39  47 S3        30.30S
QUANTICO       PTCLDY    62  31  31 CALM      30.31S
FREDERICKSBRG* CLEAR     59  40  49 SE6       30.30R
STAFFORD*      CLEAR     58  36  43 E3        30.34S
WARRENTON      CLEAR     62  25  24 CALM      30.29S
CULPEPER*      CLEAR     63  29  28 CALM      30.30S
MANASSAS*      CLEAR     60  35  39 CALM      30.30S
LEESBURG*      CLEAR     63  36  36 CALM      30.30S
WINCHESTER     CLEAR     57  34  41 SE3       30.28S
FRONT ROYAL*   CLEAR     59  34  38 CALM      30.27S
LURAY*         CLEAR     61  32  33 CALM      30.27F
$$

VAZ048-049-060>072-079>083-172300-
CENTRAL AND SOUTH CENTRAL VIRGINIA

CITY           SKY/WX    TMP DP  RH WIND       PRES   REMARKS
RICHMOND       PTCLDY    60  33  36 N6        30.30S
CHESTERFIELD*  NOT AVBL
PETERSBURG*    CLEAR     60  29  30 N5        30.30S
HANOVER        CLEAR     59  39  47 MISG      30.31S
TAPPAHANNOCK*  CLEAR     60  22  22 CALM      30.31S HAZE
QUINTON*       FAIR      58  37  43 NE3       30.30S
CHARLOTTSVILLE CLEAR     61  34  36 SE5       30.29S
GORDONSVILLE*  CLEAR     60  33  36 CALM      30.29S
ORANGE*        CLEAR     59  36  41 CALM      30.29F
LOUISA*        CLEAR     55  39  54 CALM      30.29S
BUMPASS*       FAIR      55  43  63 CALM      30.30S
FARMVILLE*     CLEAR     59  37  43 CALM      30.29S
CREWE*         FAIR      59  37  44 CALM      30.30S
FORT PICKETT*  FAIR      59  33  37 NE3       30.30S
CHASE CITY*    FAIR      61  34  37 CALM      30.29S
CLARKSVILLE*   FAIR      61  34  36 CALM      30.29S
SOUTH HILL*    CLEAR     59  36  42 CALM      30.35R
LAWRENCEVILLE* FAIR      59  33  37 CALM      30.29S
EMPORIA*       CLEAR     59  34  38 CALM      30.31S
$$

VAZ088>098-172300-
SOUTHEAST VIRGINIA

CITY           SKY/WX    TMP DP  RH WIND       PRES   REMARKS
NORFOLK        CLEAR     57  43  59 VRB6      30.30S
VIRGINIA BEACH PTCLDY    56  41  57 NE5       30.29S
NORFOLK NAVAL  PTCLDY    56  42  59 N7        30.31F
WEST POINT*    CLEAR     58  41  54 NE3       30.32S
SALUDA*        FAIR      56  42  59 NE3       30.31R
NEWPORT NEWS   CLEAR     56  43  61 NE5       30.30F
LANGLEY AFB    CLEAR     55  41  58 NE6       30.30S
FORT EUSTIS    CLEAR     61  42  48 E6        30.27F
WILLIAMSBURG*  CLEAR     59  45  58 CALM      30.31S
HR EXEC AP*    NOT AVBL
FRANKLIN*      CLEAR     58  41  52 NE5       30.30S HAZE
US460-WAKEFLD  CLEAR     59  42  53 VRB3      30.29F
$$

VAZ020-022-025-037-045-172300-
WEST CENTRAL AND SOUTHWEST VIRGINIA

CITY           SKY/WX    TMP DP  RH WIND       PRES   REMARKS
STAUNTON*      CLEAR     60  32  35 CALM      30.29F
WAYNESBORO*    CLEAR     59  33  37 S3        30.28S
HOT SPRINGS VA CLEAR     52  32  47 CALM      30.29S
LYNCHBURG      CLEAR     59  36  42 SE6       30.29S
DANVILLE       CLEAR     61  38  42 NE3       30.30S
SOUTH BOSTON*  FAIR      61  32  33 NE3       30.29S
MARTINSVILLE   CLEAR     60  39  44 E3        30.31S
ROANOKE        CLEAR     62  34  35 CALM      30.29F
BLACKSBURG     CLEAR     61  37  41 SW3       30.31S
DUBLIN*        CLEAR     62  34  35 CALM      30.30R
MARION*        CLEAR     61  32  34 E5        30.31R
HILLSVILLE*    CLEAR     58  26  29 CALM      30.28S
RICHLANDS*     FAIR      60  31  32 CALM      30.29S
WISE*            N/A     59  34  38 CALM      30.30S
ABINGDON*      CLEAR     64  36  35 CALM      30.28S
$$

MDZ021>025-VAZ099-100-172300-
SOUTHERN MARYLAND AND THE DELMARVA PENINSULA

CITY           SKY/WX    TMP DP  RH WIND       PRES   REMARKS
PATUXENT RIVER PTCLDY    57  39  51 NE3       30.31S
BAY BRIDGE APT CLEAR     59  36  41 S6        30.30S
LEONARDTOWN    NOT AVBL
DOVER          CLEAR     55  39  56 SE5       30.28F
GEORGETOWN     CLEAR     56  37  49 E5        30.31S
EASTON         CLEAR     57  37  47 W3        30.34S
CAMBRIDGE      CLEAR     57  43  58 CALM      30.31S
SALISBURY      CLEAR     57  41  55 NE3       30.30S
OCEAN CITY     CLEAR     54  41  61 VRB3      30.31F
WALLOPS ISLAND CLEAR     55  43  63 NE6       30.31S
ACCOMACK*      CLEAR     55  44  65 CALM      30.30S
$$

NCZ012>017-030>032-172300-
NORTH CENTRAL AND EASTERN NORTH CAROLINA

CITY           SKY/WX    TMP DP  RH WIND       PRES   REMARKS
ROANOKE RAPIDS FAIR      59  36  41 NE3       30.29S
RALEIGH        PTCLDY    61  37  41 NE7       30.29S
ELIZABETH CITY CLEAR     58  45  62 N12       30.29S
AHOSKIE*       CLEAR     59  39  47 NE5       30.29S
EDENTON*       CLEAR     60  44  54 CALM      30.30R
CURRITUCK*     CLEAR     58  46  64 N7        30.29F
KILL DEVIL HLS CLOUDY    59  45  60 N5        30.25F
MANTEO         MOCLDY   N/A N/A N/A NE9G16    30.27S
CAPE HATTERAS  MOCLDY    62  50  64 N10G17    30.24S
TARBORO*       NOT AVBL
GOLDSBORO      CLEAR     62  38  41 N9        30.26R
WASHINGTON     CLEAR     61  43  50 NE7       30.28R
GREENVILLE     CLEAR     63  37  39 NE5       30.28S
NEW BERN       PTCLDY    60  47  61 E8        30.28R
WILMINGTON     CLOUDY    62  44  51 NE8       30.26R
$$

VAZ048-172300-
ELSEWHERE

CITY           SKY/WX    TMP DP  RH WIND       PRES   REMARKS
HARRISBURG PA  CLEAR     58  44  60 S3        30.25F
BALTIMORE      PTCLDY    60  35  39 S3        30.29S
ANNAPOLIS      CLEAR     56  40  55 S6        30.30S
ANDREWS AFB    CLEAR     57  38  48 SE3       30.29R
PHILADELPHIA   CLEAR     60  32  34 SW8       30.28S
HENDERSON NC   CLEAR     58  31  36 NE5       30.29S
GREENSBORO     PTCLDY    60  38  43 E7        30.28S
ROCKY MOUNT    CLEAR     61  40  45 N7        30.29R
$$

VAZ100-172300-
MARINE

STATION/POSITION TIME  TEMP    WIND        PRES    WAVE   SWELL
                       AIR SEA DIR/SP/G            HT/PER HT/PER
                 (UTC) (F)     (DEG/KT/KT) (MB)    (FT/S) (FT/S)
BRANDYWINE LGT   2142   61      CALM  /  2 1026.4S
CAPE MAY NJ      2148   55 65  220/  4/  5 1025.6F
LEWES DE         2142   56 63   CALM  /  1 1026.0F
15NM E FENWICK I 2150   56 68   10/  8/ 10 1026.4F   4/ 6   3/ 6
OCEAN-CITY-INLET 2142   56 66   70/  4/  6 1026.6F
WACHAPREAGUE VA  2142   57 65  300/  1/  4 1026.0F
THOMAS POINT MD  2200   57 68  140/  5/  6   N/A
GOOSES REEF MD   2150   59      CALM  /  4 1027.8F
COVE POINT MD    2142   56      40/  2/  5 1027.0S
SOLOMONS ISLAND  2142   57 70   70/  5/  6 1026.0R
BISHOPS HEAD MD  2142   60 62  320/  1/  1 1026.4S
PINEY POINT MD   2142          120/  3/  3   N/A
POTOMAC MD       2150   58      40/  6/ 10 1025.9F
CAMBRIDGE MD     2142   58 67              1027.0S
LEWISETTA VA     2142   58 64   40/  1/  2 1026.3S
RAPPAHANNOCK LGT 2142           10/  6/ 12 1026.7F
STINGRAY PT      2150   58      40/  8/ 10 1026.6F
YORK RVR RNG VA  2142   57      50/  9/ 11 1026.6F
YORKTOWN VA      2142   57 71   60/  8/ 10 1025.7F
JAMESTOWN VA     2150           70/  6/  8   N/A
DOMINION TERM VA 2142   58      40/  4/  7 1026.3S
KIPTOPEKE VA     2142      69  350/  7/  9   N/A
CAPE HENRY VA    2142   58      10/  6/  8   N/A
WILLOUBY STN VA  2142   56      10/  8/ 10 1026.0F
S CRANEY ISL VA  2142   57      50/  9/ 11 1025.9F
CAPE HENRY BUOY  2130      70                N/A     4/ 6   2/11
1ST LANDING BUOY 2150   58                 1025.9F
CAPE CHARLES BUO 2151      70                N/A     4/ 7   2/11
64NM E OF VA BCH 2150   60 67   10/ 16/ 17 1024.9R   5/ 7   3/ 7
DUCK PIER NC     2142   60 69   10/ 12/ 18 1024.5R
44100 DUCK FRF   2135      71                N/A     6/ 7   2/11
44056 DUCK FRF   2130      71                N/A     5/ 8   2/11
OREGON INLET NC  2142   60 66   10/ 12/ 18 1024.5R
HATTERAS NC      2142   62 68   30/ 13/ 19 1024.0R
DIAMOND SHLS NC  2150   65 81   10/ 21/ 25 1022.7S   7/ 9   3/ 9
CAPE LOOKOUT NC  2200   59      10/ 14/ 17 1024.2S
$$




USA.gov is the U.S. government's official web portal to all federal, state and local government web resources and services.